Skip Page Navigation
NASA JPL Caltech
NASA Logo - Jet Propulsion Laboratory + View the NASA Portal
+ Center for Near-Earth Object Studies
JPL Home Earth Solar System Stars & Galaxies Technology
JPL Solar System Dynamics
BODIES ORBITS EPHEMERIDES TOOLS PHYSICAL DATA DISCOVERY FAQ SITE MAP
IMPORTANT: The SSD Announcement email list is now available. Major changes are coming in the near future, including possible hostname and/or URL changes. To be notified of such changes, subscribe to this email list.

Please visit this page for more details.


JPL Small-Body Database Browser
Search: [ help ]  
324818 (2007 HU80)
Classification: Main-belt Asteroid          SPK-ID: 2324818
Ephemeris | Orbit Diagram | Orbital Elements | Mission Design | Physical Parameters | Discovery Circumstances ]

[ show orbit diagram ]
Orbital Elements at Epoch 2458600.5 (2019-Apr-27.0) TDB
Reference: JPL 9 (heliocentric ecliptic J2000)
 Element Value Uncertainty (1-sigma)   Units 
e .05955842730659378 7.5545e-08  
a 3.032885980641062 4.4871e-08 au
q 2.852252061433864 2.519e-07 au
i 4.696935536041696 6.8847e-06 deg
node 207.14098792 7.8592e-05 deg
peri 179.881990898683 9.6851e-05 deg
M 283.0581927919092 5.9204e-05 deg
tp 2459012.827626702457
(2020-Jun-12.32762670)
0.00032081 TDB
period 1929.22353917982
5.28
4.2814e-05
1.172e-07
d
yr
n .1866035701352931 4.1412e-09 deg/d
Q 3.21351989984826 4.7544e-08 au
  Orbit Determination Parameters
   # obs. used (total)      144  
   data-arc span      5445 days (14.91 yr)  
   first obs. used      2004-10-09  
   last obs. used      2019-09-06  
   planetary ephem.      DE431  
   SB-pert. ephem.      SB431-N16  
   condition code      0  
   norm. resid. RMS      .57  
   source      ORB  
   producer      Otto Matic  
   solution date      2019-Sep-24 06:13:31  

Additional Information
 Earth MOID = 1.85562 au 
 Jupiter MOID = 2.10374 au 
 T_jup = 3.235 
[ show covariance matrix ]

Ephemeris | Orbit Diagram | Orbital Elements | Mission Design | Physical Parameters | Discovery Circumstances ]

Physical Parameter Table
Parameter Symbol Value Units Sigma Reference Notes
absolute magnitude H 16.5   n/a MPO450272  

324818 (2007 HU80)          Discovered 2007-Apr-25 by Mt. Lemmon Survey at Mount Lemmon
Reference: 20120406/Numbers.arcLast Updated: 2012-04-09

Alternate Designations
 2007 HU80 = 2009 UX114 
Ephemeris | Orbit Diagram | Orbital Elements | Mission Design | Physical Parameters | Discovery Circumstances ]
ABOUT SSD CREDITS/AWARDS PRIVACY/COPYRIGHT GLOSSARY LINKS
FirstGov 2019-Oct-16 23:24 UT
(server date/time)  
NASA Home Page
Site Manager:   Ryan S. Park
Webmaster  Alan B. Chamberlin